Wind_Speed
47 47 47 46 46 46 45 44 44 42 41 39 37 36 36 35 34 33 31 29 28 26 27 27 27 26 25 24 23 24 24 23 21 21 20 18 18 18 17 15 15 14 13 13 12 10 10 12 11 10 10 10 10 10 9 8 9 10 11 11 11 11 10 11 14 15 13 12 13 13 14 15 16 16 17 19 20 22 24 25 25 26 27 28 29
45 46 46 46 46 46 45 44 44 43 42 40 39 38 36 36 35 33 32 30 29 28 28 29 30 28 27 25 24 25 26 25 23 23 22 20 19 19 18 17 17 16 14 14 13 13 13 14 13 11 11 11 11 11 10 8 8 10 11 13 13 13 12 13 15 18 19 18 17 18 18 17 17 17 17 19 22 23 24 25 25 26 27 27 27
44 45 45 45 45 45 45 44 44 44 43 42 41 40 38 37 36 34 33 31 30 30 29 30 32 31 29 27 26 26 26 25 24 24 23 22 21 20 19 19 19 18 16 14 14 14 15 16 14 13 12 13 13 12 12 11 11 12 12 12 12 13 13 14 15 18 21 21 21 21 20 19 18 18 18 19 20 21 22 22 22 22 23 24 24
42 44 45 46 46 45 44 44 44 44 44 43 42 41 38 37 37 36 34 32 30 31 30 30 31 31 30 29 27 27 27 26 25 24 24 24 23 22 21 21 20 20 18 16 15 15 16 16 16 14 14 14 14 15 14 13 13 14 14 13 13 13 14 14 16 18 21 22 22 21 20 20 20 20 20 21 20 19 20 20 20 20 21 21 20
42 43 45 45 46 46 46 45 44 44 44 43 42 39 37 36 36 37 36 33 31 31 32 32 32 31 31 30 29 28 29 28 27 26 25 25 25 24 23 23 22 21 20 18 17 16 17 18 17 16 16 16 16 16 16 15 14 14 13 13 13 14 15 15 17 18 19 21 22 21 20 21 22 22 21 22 22 22 22 21 21 21 20 20 21
41 42 43 43 45 46 47 46 45 45 44 43 40 38 36 35 34 35 36 34 32 31 32 33 33 32 32 31 31 30 30 30 29 28 26 26 26 26 25 24 23 23 22 20 19 18 18 18 18 18 17 17 17 17 16 15 14 14 14 13 14 15 16 17 17 18 19 21 22 22 22 22 22 22 21 21 22 24 23 22 21 20 20 22 24
41 41 42 41 43 45 47 47 45 45 44 42 39 37 36 35 34 34 35 34 34 32 32 33 33 33 32 32 32 32 31 31 31 29 28 28 27 27 26 25 24 23 23 22 21 20 19 19 19 19 19 18 18 17 17 15 15 15 16 15 16 17 17 17 17 18 19 20 21 22 23 22 22 22 22 21 21 21 21 22 22 21 22 24 26
41 42 41 41 43 45 46 46 45 44 43 41 40 38 37 36 34 34 34 34 34 33 32 32 33 33 33 33 33 33 32 32 32 31 30 29 29 28 27 26 25 24 23 23 22 21 20 20 20 20 19 19 18 18 18 17 17 17 17 17 17 17 18 18 17 18 18 21 23 23 24 24 23 23 22 21 19 19 20 22 23 23 23 23 25
42 42 43 42 43 44 44 44 43 43 42 41 41 39 38 37 36 34 34 34 34 34 32 32 32 33 33 33 33 33 33 33 33 32 32 31 30 29 29 28 26 25 24 23 22 22 21 20 20 19 19 18 18 18 17 17 17 18 18 17 17 17 18 19 19 20 21 23 24 25 25 26 24 22 20 18 19 20 21 21 23 25 26 27 27
42 42 44 44 44 44 43 43 43 43 42 42 42 42 39 38 37 36 36 35 34 34 33 32 32 33 33 33 33 33 33 33 33 32 32 33 32 31 31 30 29 27 26 25 24 22 21 21 20 20 19 19 19 19 19 19 19 18 18 18 18 19 21 22 23 23 24 25 26 26 26 25 23 20 19 19 20 21 22 22 25 29 30 31 30
43 44 44 44 44 44 44 44 43 43 44 43 43 43 41 39 39 38 37 36 35 34 34 34 33 33 33 33 34 34 34 34 33 32 31 32 32 31 31 31 30 29 28 27 26 25 23 22 22 21 20 21 22 22 22 23 22 21 20 20 21 22 23 24 25 25 26 27 27 27 27 27 26 24 24 25 24 24 25 26 28 29 29 29 31
43 44 43 42 43 44 44 44 44 44 44 44 43 44 43 41 40 39 38 38 37 35 35 35 35 33 32 32 33 33 34 33 33 32 31 31 31 31 31 31 31 31 30 29 28 27 26 25 24 23 22 21 22 24 25 25 24 23 22 22 22 22 22 23 24 25 26 27 28 29 29 29 28 27 26 25 24 25 25 25 24 24 24 26 30
41 43 42 42 43 44 45 45 45 45 45 45 44 44 44 43 41 41 40 39 38 37 37 37 37 35 33 32 32 32 32 32 32 32 31 30 30 30 30 31 31 31 31 30 29 29 28 28 27 26 24 22 22 22 23 23 23 23 23 23 22 22 22 23 24 25 26 27 28 28 27 26 25 24 20 19 21 23 23 22 21 22 24 26 29
39 42 42 42 43 44 45 45 46 46 45 45 45 44 45 45 43 42 41 39 39 38 38 37 38 38 36 33 32 32 31 31 31 32 31 30 28 28 29 30 30 30 30 30 29 28 28 28 28 28 26 25 24 23 23 24 25 25 25 24 24 23 24 24 24 24 25 25 26 26 23 22 21 20 17 17 20 21 21 22 23 25 27 28 28
38 42 42 42 42 43 45 46 46 46 45 45 46 45 45 46 45 42 40 39 39 39 38 38 37 39 39 36 33 32 31 30 31 31 31 30 28 28 28 28 29 30 30 28 28 27 27 28 28 27 27 26 25 25 25 26 27 27 27 27 26 26 26 26 25 24 23 24 24 24 21 18 17 16 16 18 20 21 21 23 25 27 29 28 26
37 41 42 42 42 43 45 46 46 46 46 46 46 46 46 46 46 44 40 38 37 38 38 38 37 37 39 38 35 33 31 30 30 31 31 30 29 28 28 28 29 31 31 30 28 27 28 28 28 27 27 26 26 25 25 26 26 27 27 27 27 26 26 26 26 25 26 26 24 22 19 17 16 17 18 19 21 21 22 23 25 26 27 27 25
37 41 42 43 43 44 45 46 46 46 46 47 47 47 47 46 46 45 42 37 35 36 37 37 36 35 37 38 38 35 33 31 31 30 30 31 30 29 29 28 29 31 33 33 32 31 30 30 30 29 28 28 27 26 26 26 27 27 27 27 27 27 26 25 25 26 27 25 22 19 18 17 17 19 20 20 20 20 22 24 24 22 23 24 24
40 42 44 45 44 44 45 45 46 46 46 47 47 47 47 47 46 45 44 39 35 34 36 36 35 34 35 37 38 38 36 34 33 32 31 31 31 31 30 30 30 31 32 34 35 34 34 33 33 32 31 30 29 29 28 28 28 29 29 28 29 29 28 27 25 24 22 20 19 19 18 18 18 18 18 18 19 20 21 21 18 17 20 22 22
44 46 47 46 45 44 44 44 46 46 46 47 47 46 46 46 46 45 45 42 36 33 34 34 34 33 33 34 36 37 37 36 35 35 34 34 33 33 32 31 31 31 32 33 34 35 35 34 34 33 32 31 30 30 30 30 31 31 30 30 31 30 29 26 23 21 20 20 21 20 19 18 18 18 19 19 20 19 17 16 15 16 20 19 18
45 46 46 45 44 43 44 44 45 46 46 46 45 45 44 44 44 44 45 43 39 35 33 32 32 31 31 32 34 35 35 36 36 36 36 36 35 34 34 34 33 32 32 32 33 34 35 34 34 33 32 31 31 31 31 32 32 32 32 32 32 31 28 25 23 22 22 23 23 22 21 20 21 22 21 20 18 15 13 13 13 14 16 15 16
43 43 43 44 43 43 43 44 44 44 45 44 43 41 41 42 42 43 44 44 41 37 34 32 31 30 29 30 31 32 33 34 35 35 36 36 35 35 36 36 35 33 32 32 33 34 34 35 34 33 32 31 31 31 31 32 32 32 32 32 31 30 29 27 26 25 26 26 26 25 24 24 24 23 20 18 16 13 13 14 13 13 15 16 19
41 41 42 42 42 42 43 43 42 42 41 42 42 38 36 37 40 41 43 42 41 39 36 33 31 30 29 29 29 30 31 31 32 33 33 34 34 35 35 35 34 33 32 32 32 33 34 35 34 33 33 32 31 30 30 30 30 30 30 30 29 29 29 28 28 28 28 28 27 26 25 24 23 22 19 16 14 13 15 17 18 19 20 21 23
40 41 41 41 40 40 41 41 41 41 39 39 41 39 34 34 36 40 41 40 39 39 38 36 33 30 29 29 29 29 29 29 30 29 29 30 31 33 34 34 32 31 31 31 31 31 32 33 33 32 32 31 30 30 29 28 28 28 28 27 27 28 28 28 28 28 28 27 25 25 24 23 21 19 16 12 13 15 16 17 19 20 21 22 22
40 41 41 42 41 39 39 39 40 40 38 35 37 39 37 35 36 38 40 39 38 39 39 39 37 33 30 29 29 28 28 29 30 29 28 27 28 29 30 31 31 30 30 29 28 28 29 30 30 30 29 29 29 29 29 28 28 27 26 26 26 27 28 28 27 26 25 24 23 22 22 19 17 16 15 14 15 16 16 18 19 19 19 18 17
40 41 42 42 41 40 39 38 38 39 38 36 36 38 39 38 37 37 38 39 38 38 39 39 39 38 34 31 29 28 28 29 31 31 30 29 29 28 28 29 29 29 28 27 27 27 27 27 27 26 26 26 26 27 27 28 27 26 25 25 25 26 27 27 25 23 23 22 21 20 18 15 14 15 15 15 16 17 19 20 19 17 15 15 14
41 42 42 42 41 40 39 37 37 37 36 36 36 39 39 38 37 37 38 39 38 38 38 39 39 39 38 35 32 30 29 30 31 31 31 30 30 29 28 27 27 28 27 27 28 29 29 28 27 27 26 26 26 26 26 26 25 25 24 24 25 26 26 25 23 23 22 21 20 18 16 15 15 16 15 15 17 19 21 19 16 14 13 12 11
42 42 42 42 41 41 40 39 37 36 36 37 37 37 37 37 37 38 39 39 38 38 38 38 38 39 39 38 35 32 31 31 31 31 31 32 31 30 29 27 26 27 28 28 29 30 30 30 31 30 28 27 27 27 27 27 27 27 26 25 25 25 24 24 22 21 21 19 17 16 15 15 16 17 17 18 20 21 18 14 13 12 12 10 8
43 43 42 42 41 41 41 40 39 38 38 37 35 34 35 36 37 38 40 41 40 40 39 39 39 39 39 39 37 35 33 33 33 34 34 34 33 32 30 28 27 27 29 30 29 29 30 31 32 33 31 30 29 29 29 29 29 29 29 27 25 24 23 22 20 20 20 19 17 16 16 17 18 19 20 20 20 18 14 12 11 11 9 7 7
42 43 42 41 40 41 41 41 40 38 37 36 34 34 35 35 34 36 38 39 39 40 40 39 39 38 37 37 37 37 37 36 36 35 35 35 34 32 30 28 27 26 27 28 29 29 30 31 32 33 33 33 32 32 32 32 32 32 32 30 27 25 23 21 20 22 22 21 19 19 20 20 20 19 18 16 15 14 12 10 9 8 7 6 5
41 41 40 40 40 41 42 41 41 39 36 38 39 38 37 35 34 34 36 37 36 36 37 37 37 35 33 32 34 35 36 36 35 34 34 33 31 30 28 25 23 23 22 24 27 30 31 32 32 33 33 34 34 34 34 33 32 32 31 28 25 23 21 19 18 19 20 19 18 18 19 20 18 16 14 12 12 12 11 10 8 6 5 5 4
38 40 40 39 39 42 42 41 41 40 38 40 42 41 39 38 36 33 34 34 34 33 33 33 33 33 32 31 31 32 32 32 31 30 31 31 29 28 25 22 20 20 20 22 26 31 33 33 33 33 33 32 32 33 32 31 30 28 27 23 20 20 20 18 15 15 17 18 15 14 15 16 13 12 12 11 11 10 9 8 7 5 4 4 4
31 36 39 39 38 41 41 41 41 40 39 41 43 42 40 39 37 35 34 33 33 33 33 31 31 31 32 31 30 30 30 30 29 28 28 28 27 25 22 20 19 19 19 21 25 30 33 34 33 33 32 30 29 28 27 26 25 25 25 23 23 24 24 21 18 18 19 17 13 12 13 12 10 10 11 10 9 7 7 6 5 4 4 4 4
30 31 35 38 40 41 40 40 40 40 39 41 42 41 39 38 38 37 36 34 33 33 33 33 32 31 31 32 31 30 29 28 28 27 26 26 24 22 21 21 21 20 21 22 24 28 31 33 32 30 28 27 24 22 21 22 23 25 26 25 25 25 24 21 20 20 19 14 10 10 11 10 9 8 7 6 5 5 5 5 4 4 5 5 5
35 33 33 35 40 43 41 40 41 39 37 39 40 39 39 38 37 38 37 35 34 34 33 34 34 33 32 32 31 30 29 28 27 27 25 24 23 22 21 22 22 22 22 21 21 23 28 31 31 27 24 23 22 22 23 24 25 25 24 22 21 21 18 16 17 19 17 12 8 8 9 8 7 6 4 3 4 5 4 3 3 5 8 8 7
37 38 34 33 39 43 40 39 40 38 34 36 37 36 37 37 36 36 37 36 35 35 34 34 35 34 33 32 30 29 28 27 26 25 24 23 23 23 23 24 24 24 24 23 21 21 24 28 28 27 26 25 24 25 28 29 28 26 23 21 22 21 17 15 16 16 13 8 8 9 10 8 7 6 4 3 5 5 4 4 4 5 8 8 9
34 36 34 34 38 43 39 36 38 37 32 33 34 32 33 34 33 33 35 35 34 34 33 33 33 32 32 31 29 28 27 25 24 23 22 22 22 23 24 24 25 25 25 24 21 21 22 25 26 27 28 28 27 27 29 30 30 29 27 23 20 17 15 16 18 16 11 9 11 12 11 8 6 6 4 4 5 6 4 4 4 5 8 9 9
27 30 34 36 37 37 36 35 37 36 31 30 30 28 28 30 30 30 31 32 33 33 33 31 30 30 30 30 29 28 27 25 24 23 23 22 21 21 21 22 23 24 24 24 22 22 23 25 26 27 27 27 27 28 28 27 27 26 24 21 18 17 17 17 14 12 12 13 12 11 9 5 4 3 2 3 5 5 5 4 5 5 6 8 9
19 18 27 36 36 33 34 34 34 35 33 30 28 28 28 29 28 27 27 30 33 33 32 30 29 30 31 31 30 30 28 27 26 25 25 23 22 22 22 22 22 24 25 25 25 23 23 24 26 26 25 25 24 24 23 22 21 20 20 20 20 19 18 14 10 10 14 13 9 5 4 2 2 2 3 4 5 5 5 6 7 7 6 7 8
16 10 18 30 31 31 35 36 33 31 32 31 29 28 28 27 27 26 27 29 30 29 28 27 28 30 31 32 32 31 30 29 28 26 25 24 24 24 25 26 26 25 25 25 25 25 25 26 27 27 26 25 23 20 17 15 14 14 15 17 17 15 13 10 6 7 9 8 5 3 4 4 5 7 8 8 7 7 7 6 5 6 7 7 8
7 6 12 21 23 23 29 34 33 30 29 29 28 27 25 25 26 27 28 28 27 26 26 26 28 29 29 29 29 29 30 29 27 26 25 25 26 27 28 28 28 27 26 26 26 27 27 27 27 26 25 23 21 19 17 15 13 11 11 12 12 11 12 12 10 9 9 8 7 7 8 8 10 10 10 10 9 9 9 8 7 7 7 7 9
13 12 11 13 15 17 21 26 29 29 27 27 26 23 21 21 23 24 24 24 25 25 25 25 25 25 24 23 25 26 28 28 27 26 26 27 28 29 30 29 29 28 28 27 26 25 25 24 25 24 22 21 20 19 19 18 18 18 18 17 15 15 16 16 15 15 16 16 15 15 14 13 13 12 12 12 11 9 8 8 9 9 8 10 12
16 17 17 16 14 15 18 22 23 22 22 21 19 17 16 17 17 18 19 20 22 23 23 21 20 19 20 22 24 26 27 28 29 30 30 29 29 28 27 25 24 24 25 25 23 22 22 22 22 22 22 22 22 22 22 21 20 21 22 21 20 18 18 19 19 19 20 20 19 17 16 16 16 15 13 14 13 11 9 8 8 8 9 12 13
18 18 18 19 19 16 17 19 19 17 16 16 16 16 16 17 18 17 17 17 18 19 18 18 18 21 24 25 26 27 27 29 30 30 30 29 27 24 23 21 19 19 19 20 20 20 21 22 22 22 22 22 21 21 20 19 19 20 22 22 21 19 18 17 17 18 20 19 17 14 12 12 13 13 12 13 13 13 12 11 11 11 11 12 12
23 22 21 21 22 22 20 19 18 17 15 14 14 15 16 17 18 18 18 18 17 18 19 22 24 27 28 26 25 26 28 29 29 28 26 24 21 18 17 16 16 16 17 18 18 19 19 19 19 18 17 15 15 15 14 14 14 14 15 17 18 17 14 10 10 12 15 16 14 11 9 8 8 8 8 9 11 12 12 13 13 14 15 15 15
24 25 24 22 22 23 23 21 18 16 15 14 15 15 15 15 15 16 18 21 22 23 25 27 28 28 28 27 24 24 24 25 24 23 21 19 17 16 15 14 15 15 16 17 17 17 16 15 14 13 12 10 11 11 11 10 10 9 9 10 10 9 8 6 6 7 8 8 8 7 6 6 6 5 5 7 7 8 9 11 13 15 16 17 18
20 23 25 24 23 21 21 20 18 15 14 14 15 15 15 14 14 16 19 22 25 26 26 27 26 26 24 22 20 18 18 19 19 18 16 14 14 14 14 14 15 15 16 16 16 16 15 14 14 13 12 10 10 9 9 9 8 7 6 6 6 5 4 4 3 4 4 4 4 4 4 4 4 4 4 6 7 7 8 10 12 14 15 16 17
15 17 20 21 21 20 19 18 17 15 15 15 15 15 16 17 18 19 20 22 23 23 23 22 21 20 17 15 14 14 15 16 16 16 16 15 14 14 14 14 15 15 15 16 15 15 14 13 12 11 10 8 7 8 9 8 7 5 5 5 4 4 3 3 2 3 3 3 3 4 4 4 3 4 6 6 7 7 7 8 10 11 12 12 13
13 14 15 16 17 18 17 16 16 15 15 15 15 15 16 17 19 21 22 21 21 19 17 16 16 15 14 14 14 14 14 14 14 15 16 16 16 16 15 15 14 14 13 13 12 11 11 10 10 10 10 10 10 10 10 8 7 6 6 5 4 4 3 2 2 2 3 3 4 4 4 3 3 4 6 7 7 6 6 7 9 10 11 11 11
11 13 13 12 13 15 15 15 16 16 15 15 15 17 17 18 19 20 20 20 20 19 17 17 17 17 17 16 16 15 15 15 15 17 18 18 17 17 15 14 13 13 12 12 11 11 12 13 13 12 12 11 10 9 8 7 6 5 5 4 3 2 2 1 2 3 3 3 3 3 3 3 2 3 5 6 6 7 8 9 10 11 11 12 13
6 6 7 7 9 11 11 12 13 14 13 14 15 17 18 18 19 19 18 19 21 22 22 22 23 22 21 19 18 17 17 17 17 17 17 16 15 14 12 11 11 10 10 10 11 11 12 12 11 10 9 8 7 6 5 5 4 3 2 2 1 0 1 1 2 2 2 3 3 3 4 4 4 4 5 5 6 8 10 11 11 11 12 12 12
5 3 3 4 6 7 8 9 10 11 11 12 13 14 15 16 18 19 19 19 21 22 21 21 21 22 22 21 21 20 19 19 18 17 16 15 14 13 11 11 10 9 8 8 8 8 9 8 8 7 6 5 4 3 2 2 1 1 1 1 0 1 2 2 2 2 2 3 4 4 5 5 5 6 7 8 8 9 9 9 9 10 10 9 9
Wind_Direction
211 212 213 215 216 217 218 218 217 218 218 218 218 220 221 221 224 226 226 226 228 223 217 221 229 231 231 232 231 234 238 236 234 235 236 235 235 235 234 237 241 239 235 236 237 237 246 256 254 250 251 251 253 254 247 248 265 281 295 302 300 298 293 283 288 301 311 313 310 307 306 303 301 300 299 298 299 297 296 297 297 298 299 301 304
208 210 212 212 214 217 219 218 217 217 217 217 217 219 220 220 221 224 225 225 224 224 219 218 224 228 228 229 228 229 236 239 235 235 236 235 234 235 233 233 240 243 239 235 235 233 237 247 255 254 253 256 257 258 255 251 257 271 287 299 303 303 300 291 288 295 303 309 310 310 312 309 304 304 301 299 301 300 297 297 298 297 298 299 302
205 209 209 210 213 215 217 218 217 216 217 218 218 219 220 220 221 222 222 222 221 221 220 217 221 226 226 227 226 226 231 237 237 235 237 237 235 235 235 235 238 243 245 241 237 238 239 244 251 253 253 256 258 260 257 247 241 243 249 263 276 284 289 289 288 289 293 299 303 305 308 307 303 301 297 297 300 299 297 299 299 298 298 300 302
202 206 209 211 212 213 215 216 218 218 218 220 220 220 219 220 221 221 220 218 217 219 219 217 221 225 224 224 224 224 227 233 237 236 236 238 238 236 236 237 239 243 247 246 242 241 244 245 248 250 251 254 255 257 258 253 248 244 243 246 253 263 270 272 275 279 283 289 297 303 306 307 308 310 311 314 316 314 311 311 310 309 308 308 308
198 205 209 210 209 212 215 215 217 219 219 219 219 216 213 215 219 220 219 217 216 217 217 216 219 222 222 221 222 223 225 229 235 237 237 239 241 240 237 237 239 242 246 249 248 246 247 248 249 249 247 248 252 255 257 256 255 255 258 263 264 267 273 276 279 281 283 288 296 303 305 305 309 313 317 320 321 319 316 314 315 316 316 316 317
196 201 205 205 206 210 214 215 216 219 219 218 216 211 207 208 213 217 218 217 214 215 217 217 218 221 221 220 220 222 224 226 232 237 238 239 240 242 242 239 240 242 244 248 251 251 251 252 253 251 248 245 248 253 255 255 256 259 263 268 268 269 271 275 278 279 283 289 296 302 304 306 308 312 315 315 312 310 310 313 316 318 318 318 318
196 198 199 199 203 207 212 214 215 217 218 215 211 208 205 205 209 214 216 215 211 211 215 218 220 221 222 221 220 221 224 226 229 234 237 238 239 241 242 242 242 242 245 248 251 252 253 254 255 253 250 248 247 248 251 252 254 259 263 266 267 268 272 275 277 280 284 289 293 297 300 302 302 304 307 307 306 308 312 315 316 317 317 314 312
197 199 198 197 201 205 210 213 212 212 214 212 208 207 207 206 207 212 214 213 210 208 211 217 221 221 222 223 221 220 223 225 228 232 235 236 237 238 239 241 241 242 246 248 249 252 254 254 256 256 253 251 250 250 251 251 253 258 263 266 267 270 276 280 282 284 284 285 289 293 295 297 299 302 307 310 311 313 314 312 311 312 311 307 306
197 199 199 200 202 204 206 208 209 209 210 209 207 207 207 207 207 210 213 213 210 207 208 214 220 221 221 223 223 222 223 226 228 231 235 235 234 234 236 238 239 239 243 246 248 251 253 250 249 252 254 256 258 259 260 259 257 258 260 263 268 272 276 280 283 285 286 287 290 293 294 297 300 304 307 307 305 305 306 305 303 302 304 304 305
198 199 201 202 203 203 203 204 206 207 207 208 208 206 206 207 206 208 213 214 212 208 206 210 218 222 220 220 223 222 222 227 232 235 237 238 236 234 235 238 240 240 240 241 243 247 250 249 246 245 247 252 258 262 264 265 264 263 262 263 268 274 278 281 284 285 286 288 290 292 292 294 296 296 294 293 294 298 300 298 296 300 306 309 311
200 201 203 203 203 202 202 203 204 205 206 208 208 206 205 206 207 208 211 215 215 211 208 208 214 220 221 221 225 226 226 229 236 239 239 240 240 238 237 237 240 242 241 239 239 242 246 248 249 246 243 244 247 251 255 260 265 268 270 270 272 277 280 281 284 286 287 287 289 290 288 288 289 289 288 291 293 294 296 297 299 304 309 312 314
201 202 203 203 203 203 202 202 203 204 206 208 209 207 205 205 207 208 209 213 216 214 211 208 210 215 220 221 224 228 230 231 235 239 240 240 240 241 240 239 238 240 242 242 241 242 246 248 249 249 248 247 247 249 253 258 263 267 270 272 273 276 279 281 284 286 287 287 288 288 289 290 292 295 298 300 300 301 303 306 307 307 308 310 313
201 202 204 204 204 204 203 202 203 205 206 207 208 207 205 205 207 208 209 211 214 215 214 211 210 212 217 220 221 225 230 233 233 236 240 242 242 241 241 241 240 240 242 245 244 245 248 252 252 251 249 249 250 254 259 263 266 268 270 273 275 278 281 283 284 285 286 287 287 290 295 297 298 304 310 309 307 308 310 313 315 311 309 312 314
202 203 204 205 205 204 204 203 204 205 206 206 207 207 206 205 206 208 209 210 213 215 215 214 213 212 214 219 223 224 227 231 233 234 238 243 246 244 243 243 243 242 242 244 247 247 249 252 256 257 255 251 248 248 254 261 266 270 273 276 280 283 284 285 285 285 286 287 288 294 300 303 302 307 312 310 309 312 313 314 314 311 310 313 315
203 204 204 205 206 205 204 204 204 205 205 205 206 207 207 207 206 207 209 209 212 215 216 216 216 215 214 216 222 225 226 228 232 234 237 243 246 246 245 244 244 243 241 241 244 247 250 252 255 258 260 257 253 250 252 258 262 268 273 278 283 286 288 289 290 291 292 293 295 300 305 307 306 306 307 308 311 312 309 306 306 307 308 311 313
204 203 204 205 207 207 206 205 205 205 205 205 206 208 209 208 207 207 207 208 210 215 216 216 217 218 217 216 218 223 224 225 229 233 238 244 246 246 245 244 243 242 240 238 238 241 246 251 254 258 261 261 261 259 258 259 261 265 270 276 282 286 288 292 295 296 297 298 299 303 307 306 304 303 304 307 310 310 305 301 303 307 308 311 315
207 204 204 206 208 208 208 206 206 205 205 205 207 208 209 208 207 206 206 206 207 211 215 216 216 218 219 219 219 221 223 225 227 230 236 242 243 243 244 244 243 242 241 239 238 238 241 246 251 256 260 263 265 265 265 264 264 266 269 272 275 278 280 284 286 288 292 296 299 300 300 299 299 300 301 303 306 306 303 302 307 311 311 313 317
210 207 206 207 208 209 209 207 206 206 205 206 207 208 209 209 208 207 206 205 204 206 212 215 217 219 221 222 223 223 224 226 227 227 231 236 239 242 244 244 243 243 242 241 240 241 243 247 250 253 257 262 265 267 267 267 268 269 271 272 273 275 278 281 282 283 285 288 290 290 289 291 293 293 296 301 304 303 301 304 312 314 311 313 318
210 210 209 207 207 208 209 208 207 207 207 207 207 207 208 208 208 207 208 207 205 206 210 214 216 218 220 223 227 228 227 227 228 229 230 232 235 239 242 243 244 245 245 244 244 244 247 250 252 254 257 260 262 265 267 269 270 272 273 274 275 277 280 281 281 279 275 272 274 277 281 285 286 290 297 301 299 297 299 310 319 315 310 313 316
209 210 209 206 206 208 208 208 208 208 208 207 207 207 207 208 208 207 208 209 208 207 210 213 214 216 218 220 226 232 232 229 229 232 234 235 236 238 241 244 246 248 249 248 248 248 250 252 254 256 258 259 260 262 266 267 270 272 273 273 274 277 278 277 273 271 270 268 267 267 269 273 279 288 296 296 294 295 303 311 313 304 298 301 304
207 208 207 204 204 207 208 207 207 208 208 208 206 206 208 209 209 208 208 210 210 210 211 212 214 217 219 219 223 229 234 234 233 235 237 240 240 241 243 247 250 252 252 252 252 252 253 255 257 259 260 260 260 261 263 266 268 270 270 272 273 274 274 272 269 268 268 267 266 266 266 268 273 279 285 289 291 293 293 291 285 279 280 289 296
205 206 206 203 203 205 206 206 207 207 208 208 207 205 206 208 210 210 210 210 212 212 211 212 214 217 219 221 222 225 232 238 240 239 240 242 244 244 246 250 253 254 254 254 254 254 255 257 259 262 263 264 264 264 264 265 266 266 267 270 271 270 270 269 268 266 265 265 266 267 266 267 270 275 282 285 277 265 266 272 273 274 279 285 291
204 205 205 202 202 203 204 205 206 206 206 207 207 207 205 204 207 210 210 210 212 212 211 211 213 216 219 222 223 223 227 234 241 243 243 242 243 245 248 251 253 252 252 253 254 255 257 257 258 260 262 264 266 267 267 267 267 268 269 269 268 267 267 266 265 264 264 265 265 265 265 268 273 277 277 267 252 253 262 267 269 274 280 285 290
203 204 204 202 201 203 204 204 205 205 205 205 205 205 204 202 203 208 210 210 210 211 212 211 212 214 217 221 223 224 225 230 236 242 244 244 244 246 247 248 250 250 250 251 252 254 255 256 256 256 257 260 262 265 267 268 268 269 268 266 264 263 263 263 264 264 265 265 265 265 269 275 276 272 263 253 251 260 269 271 274 282 289 292 297
201 202 204 202 201 202 203 203 204 204 204 203 201 201 201 202 203 207 210 209 209 210 212 212 213 214 215 218 221 223 224 227 232 236 241 244 247 247 247 246 246 247 248 247 245 244 245 248 252 252 252 254 256 260 262 264 265 266 265 263 263 263 263 263 264 264 263 265 266 267 272 277 271 259 254 255 261 267 272 277 284 292 297 301 306
200 201 202 201 201 202 202 202 203 202 202 202 202 201 201 201 203 205 208 208 208 209 211 212 214 215 216 217 220 221 222 225 231 236 239 243 245 245 245 245 244 246 247 245 241 238 237 240 245 247 247 248 250 253 256 259 260 261 262 264 266 265 264 263 262 263 265 267 268 269 272 270 261 254 253 260 269 273 277 284 293 300 304 310 312
200 200 201 200 200 201 201 201 201 199 198 200 201 201 201 200 201 204 207 207 207 209 211 212 213 215 216 217 218 220 221 223 228 234 238 241 242 241 240 241 241 241 240 240 239 238 238 240 242 243 243 244 245 248 251 253 256 258 262 267 268 265 262 261 262 264 265 265 265 266 264 258 254 255 259 265 271 276 283 295 305 308 310 313 310
201 199 200 200 200 200 201 200 200 198 197 198 199 199 200 200 201 205 208 209 208 208 210 211 213 216 217 217 217 219 221 222 225 231 236 239 241 241 239 238 239 238 237 238 237 235 236 239 240 240 241 242 243 246 248 249 253 258 262 267 267 262 259 258 257 258 260 262 261 258 254 251 253 257 263 267 274 282 293 306 309 307 308 308 313
201 199 198 198 199 199 199 199 198 197 195 196 196 196 198 199 201 204 208 211 211 211 211 213 215 216 217 219 219 219 221 223 225 229 235 239 242 242 243 244 244 242 241 239 236 233 233 235 237 239 241 241 242 244 246 250 254 257 260 265 265 261 256 252 248 249 253 258 260 258 254 252 253 257 263 269 276 284 295 305 305 300 300 310 338
200 199 197 197 198 199 198 197 196 195 192 193 195 195 195 196 198 201 205 209 210 212 214 215 216 217 217 220 222 223 225 227 228 229 234 238 241 244 248 249 248 245 243 240 235 232 232 234 236 239 240 241 242 244 246 250 252 255 260 264 261 254 252 248 242 242 249 255 257 255 249 246 247 254 262 267 274 284 295 302 300 295 308 338 5
201 198 196 197 199 198 196 195 195 193 191 193 196 195 192 193 195 198 203 206 207 209 212 215 216 216 217 219 223 225 228 230 230 231 234 236 238 241 243 241 239 238 239 239 236 232 231 232 235 237 240 242 244 245 246 247 247 251 258 258 246 237 241 240 231 232 247 254 252 243 237 236 241 252 260 266 277 287 295 301 302 307 332 356 354
204 200 198 198 199 197 194 194 193 190 191 194 196 195 193 192 193 196 200 205 206 207 209 211 213 214 216 218 221 224 228 230 230 229 231 232 235 238 238 236 235 234 232 233 235 234 233 232 233 236 238 240 243 247 248 245 242 243 246 242 233 229 231 232 233 241 249 250 239 229 230 234 239 248 259 272 283 288 291 299 310 322 331 341 332
210 207 203 202 200 196 194 193 191 189 192 196 195 194 194 194 195 197 199 202 205 208 209 210 210 212 214 217 220 224 227 230 230 229 229 231 235 237 237 237 238 237 234 232 233 233 232 231 231 234 237 239 244 247 243 236 234 234 233 233 230 226 227 235 243 244 242 236 228 227 232 236 241 249 263 280 285 285 294 301 305 302 300 314 332
211 215 216 212 203 196 193 193 190 188 193 196 194 194 196 196 198 200 200 201 204 207 208 209 210 212 214 217 221 224 225 227 230 231 232 234 235 234 233 232 234 233 232 233 236 236 235 232 230 231 236 239 238 235 230 229 229 229 227 227 224 224 236 249 246 237 235 232 221 221 227 228 234 247 254 251 251 260 272 278 281 282 282 297 331
211 217 223 220 206 195 191 191 188 186 191 194 192 193 196 198 201 204 205 205 206 206 208 211 212 213 216 218 221 224 225 228 231 233 234 234 233 231 229 228 228 229 230 233 236 236 235 233 229 228 233 235 233 232 231 229 226 223 222 224 227 235 248 246 228 226 238 231 201 210 225 222 224 242 248 232 243 256 250 232 239 265 276 296 333
213 217 224 221 206 194 189 187 185 185 188 191 191 192 194 196 201 206 208 209 209 210 212 213 213 214 217 219 221 224 225 227 229 230 231 230 229 231 230 227 228 231 233 234 231 227 226 227 226 227 231 234 234 234 233 230 226 223 221 223 229 233 231 223 218 221 224 207 201 218 233 233 237 254 246 217 232 251 250 242 250 268 283 306 337
212 218 220 214 202 191 185 181 180 182 184 184 183 185 188 193 199 205 207 208 210 214 216 215 214 216 217 219 222 223 222 222 222 222 224 224 225 229 230 227 228 229 226 222 220 220 220 221 222 226 231 234 233 231 228 225 222 220 221 229 233 222 215 222 227 215 200 203 216 230 236 231 238 262 251 214 227 235 232 248 271 279 291 311 330
198 203 203 199 193 186 180 176 175 178 181 179 176 176 181 186 191 196 199 202 206 212 215 215 216 218 219 219 221 221 221 221 219 218 219 222 224 227 227 223 222 221 218 215 218 221 221 221 222 225 227 228 227 225 224 224 223 223 228 232 227 216 214 223 226 200 194 203 218 241 253 227 178 196 237 239 242 247 244 259 281 281 280 301 312
193 178 177 182 181 174 170 167 164 166 171 172 173 176 180 182 182 183 188 193 199 207 212 214 217 220 221 221 221 221 221 222 222 223 224 226 227 228 226 222 219 218 218 220 223 224 224 224 224 223 223 223 223 220 217 221 226 227 225 219 213 212 217 217 206 195 193 189 183 210 245 225 196 207 225 225 227 242 247 253 275 272 263 277 292
164 157 164 171 169 161 159 157 153 151 155 160 164 167 172 177 179 181 184 188 195 203 210 214 216 218 220 221 221 220 220 220 222 224 224 222 221 219 217 217 217 217 218 220 219 219 220 221 221 221 220 220 217 209 199 197 192 180 177 180 185 197 203 189 166 154 157 161 168 179 186 194 202 212 220 219 222 236 246 254 264 262 260 283 300
68 77 99 131 150 158 159 155 150 150 153 156 157 158 162 171 178 184 189 193 198 205 211 215 218 220 221 219 214 213 213 213 213 211 209 208 210 210 209 209 211 212 213 214 212 210 210 212 214 215 212 207 201 192 185 181 171 157 153 154 156 168 185 185 173 166 171 181 190 192 194 205 214 215 218 222 223 225 236 253 262 262 273 296 304
62 70 73 82 104 134 147 147 147 152 158 162 164 168 176 185 193 203 210 212 212 215 217 217 216 212 205 199 198 201 204 204 203 200 198 197 199 201 200 198 197 196 198 202 202 201 202 202 202 200 194 188 183 178 177 180 176 169 168 167 163 169 185 193 189 186 189 195 200 205 214 224 227 227 231 235 233 227 223 231 241 252 273 292 296
66 71 74 74 74 84 108 126 137 147 156 164 170 176 183 189 193 199 206 208 210 212 210 202 191 184 180 181 187 192 194 193 192 192 192 193 194 194 192 187 180 177 180 184 187 191 194 194 192 190 186 183 181 180 184 191 191 187 184 182 183 190 200 203 200 201 206 211 218 228 238 240 239 242 249 250 247 244 242 244 248 253 265 276 277
61 64 68 68 62 60 71 91 108 118 128 141 152 159 166 171 172 173 176 177 176 177 178 176 175 175 173 174 179 184 184 183 184 184 185 184 181 176 173 171 172 177 180 179 179 182 185 187 187 187 184 181 182 185 191 197 200 197 192 190 195 203 208 206 201 204 210 218 228 239 250 257 258 259 258 254 252 251 253 257 260 261 264 268 268
52 58 62 64 62 57 58 66 78 92 107 122 135 143 149 154 157 159 161 160 158 160 163 165 168 171 171 171 175 180 183 183 181 175 169 163 156 151 150 153 160 168 172 173 175 177 180 184 187 184 179 178 182 183 183 185 190 191 187 184 189 198 203 205 211 216 218 226 234 240 249 261 264 260 255 254 251 245 244 251 258 262 265 268 270
44 52 58 63 66 64 60 62 70 81 95 109 119 128 134 139 144 151 156 156 155 156 158 159 161 164 166 166 168 171 174 175 172 163 155 150 148 147 148 150 153 154 154 158 162 165 169 178 185 186 188 197 199 189 181 183 186 181 174 174 182 192 200 208 217 219 217 219 223 230 243 252 251 249 254 258 257 253 251 255 262 267 271 274 277
50 51 53 59 66 70 70 70 75 82 93 103 111 119 126 133 139 146 153 157 158 157 155 154 154 154 153 152 151 150 151 154 156 154 151 149 145 142 140 141 144 147 149 150 152 156 163 173 180 181 179 179 169 157 159 167 171 167 163 165 169 172 174 178 185 195 204 206 210 223 240 251 258 262 265 268 272 275 277 277 275 276 280 283 286
63 59 54 52 59 67 75 81 83 86 94 103 109 116 124 131 137 141 146 150 152 151 149 148 146 143 141 142 145 146 148 148 145 140 137 136 135 133 132 131 133 139 143 144 144 147 152 153 150 146 143 138 132 132 136 138 137 137 140 139 140 145 154 168 193 215 227 231 234 243 250 256 275 291 297 300 302 298 291 285 282 283 287 292 293
62 60 58 52 53 60 73 85 91 92 97 104 113 120 127 132 136 140 142 142 141 139 137 136 133 129 129 133 136 139 141 140 134 128 127 127 126 125 123 121 121 124 125 123 124 127 132 134 134 133 131 128 125 125 126 125 126 132 139 139 139 140 152 184 217 232 238 245 251 252 242 227 248 305 315 316 311 299 290 289 294 297 299 298 295
74 64 63 60 57 58 65 76 87 95 102 111 120 127 132 137 140 142 143 142 139 136 134 132 129 127 128 131 134 136 136 135 131 128 126 125 124 124 123 123 123 121 117 116 120 127 133 135 135 132 129 126 123 123 127 132 137 146 148 142 140 169 222 231 242 246 247 255 261 263 264 260 259 266 273 277 283 292 298 304 310 307 302 300 303
126 126 111 88 78 76 78 86 95 105 114 122 128 132 137 142 146 147 147 144 141 138 134 130 129 131 134 137 140 142 141 139 136 133 131 128 128 129 129 128 125 122 122 128 137 143 143 140 135 130 129 127 124 125 133 145 150 144 121 117 162 258 253 252 266 273 276 277 279 282 286 282 272 267 272 280 290 301 310 317 317 311 309 318 327
Height
1511 1514 1516 1519 1522 1524 1527 1530 1533 1536 1539 1542 1545 1547 1550 1552 1554 1556 1559 1561 1563 1565 1567 1568 1569 1570 1572 1573 1575 1576 1577 1579 1581 1582 1583 1584 1585 1586 1587 1587 1588 1589 1590 1591 1591 1592 1593 1593 1594 1594 1595 1595 1595 1596 1596 1597 1597 1597 1597 1597 1597 1597 1597 1597 1596 1595 1595 1596 1596 1595 1595 1595 1594 1593 1593 1591 1590 1589 1588 1586 1585 1584 1583 1582 1580
1507 1510 1512 1515 1518 1520 1523 1526 1530 1533 1536 1539 1541 1544 1546 1549 1551 1554 1556 1558 1560 1562 1564 1566 1567 1568 1569 1571 1572 1574 1575 1576 1578 1579 1581 1582 1583 1584 1585 1586 1586 1587 1588 1589 1590 1591 1591 1592 1592 1593 1594 1594 1594 1595 1595 1596 1597 1597 1597 1597 1596 1596 1596 1596 1595 1594 1593 1593 1594 1593 1593 1592 1592 1591 1590 1589 1588 1587 1586 1584 1584 1583 1582 1580 1579
1503 1505 1508 1511 1514 1517 1520 1523 1526 1529 1532 1535 1538 1540 1543 1545 1548 1551 1553 1555 1557 1559 1561 1563 1564 1565 1567 1569 1570 1572 1573 1574 1576 1577 1578 1580 1581 1582 1583 1584 1585 1585 1586 1587 1588 1589 1590 1590 1591 1592 1592 1593 1593 1593 1594 1595 1595 1596 1596 1596 1596 1596 1595 1595 1594 1593 1592 1592 1592 1591 1591 1590 1589 1589 1588 1587 1586 1585 1584 1583 1582 1581 1580 1579 1577
1499 1501 1504 1507 1510 1514 1517 1520 1523 1526 1528 1531 1533 1536 1539 1542 1545 1547 1550 1552 1554 1556 1558 1560 1561 1563 1564 1566 1568 1569 1570 1572 1573 1575 1576 1578 1579 1580 1581 1582 1583 1584 1584 1585 1586 1587 1588 1589 1589 1590 1591 1591 1591 1592 1592 1593 1594 1594 1594 1595 1595 1595 1595 1594 1594 1593 1592 1590 1590 1589 1589 1588 1587 1586 1586 1584 1583 1582 1581 1580 1580 1579 1578 1577 1576
1497 1497 1499 1503 1506 1509 1512 1515 1519 1521 1524 1527 1530 1533 1536 1538 1541 1543 1546 1549 1551 1553 1555 1556 1558 1560 1561 1563 1565 1566 1568 1569 1571 1572 1574 1575 1576 1578 1579 1580 1581 1582 1583 1584 1585 1585 1586 1587 1588 1588 1589 1590 1590 1590 1591 1591 1592 1592 1593 1593 1593 1593 1593 1593 1592 1591 1590 1589 1588 1588 1587 1586 1585 1584 1583 1582 1580 1579 1579 1579 1578 1577 1576 1575 1574
1494 1494 1496 1500 1502 1505 1508 1511 1514 1517 1520 1524 1527 1530 1533 1535 1537 1539 1542 1545 1548 1550 1551 1553 1555 1556 1558 1560 1562 1564 1565 1567 1568 1570 1571 1573 1574 1575 1576 1578 1579 1580 1581 1582 1583 1584 1584 1585 1586 1586 1587 1588 1588 1589 1589 1590 1590 1591 1591 1591 1591 1591 1591 1591 1590 1590 1589 1588 1586 1586 1585 1584 1583 1582 1582 1581 1579 1578 1577 1577 1576 1575 1574 1573 1572
1491 1492 1493 1496 1498 1501 1503 1506 1510 1513 1516 1520 1524 1527 1530 1532 1534 1536 1538 1541 1544 1547 1548 1550 1551 1553 1555 1557 1559 1561 1562 1564 1565 1567 1568 1570 1571 1572 1574 1575 1577 1578 1579 1580 1581 1582 1582 1583 1584 1584 1585 1586 1586 1587 1587 1588 1589 1589 1589 1589 1589 1589 1589 1589 1589 1588 1587 1586 1585 1584 1583 1583 1582 1581 1581 1580 1579 1577 1576 1574 1573 1573 1573 1572 1570
1487 1488 1490 1492 1494 1496 1499 1502 1506 1509 1513 1517 1520 1524 1527 1530 1532 1534 1536 1538 1541 1543 1545 1547 1548 1551 1552 1554 1556 1558 1559 1561 1562 1564 1565 1567 1569 1570 1571 1573 1574 1575 1576 1578 1579 1579 1580 1581 1581 1582 1583 1583 1584 1585 1586 1586 1587 1587 1587 1587 1588 1588 1587 1587 1587 1586 1586 1585 1584 1583 1582 1581 1581 1580 1580 1579 1577 1576 1575 1573 1572 1571 1571 1571 1569
1484 1485 1486 1488 1489 1492 1495 1499 1502 1506 1510 1513 1517 1520 1523 1526 1529 1531 1533 1535 1537 1540 1542 1544 1545 1547 1550 1551 1553 1555 1556 1558 1559 1560 1562 1564 1566 1567 1569 1570 1571 1573 1574 1575 1576 1577 1578 1579 1579 1580 1581 1581 1582 1583 1583 1584 1585 1585 1585 1586 1586 1585 1585 1585 1585 1584 1584 1583 1582 1581 1580 1579 1579 1579 1578 1577 1576 1575 1574 1573 1571 1569 1568 1567 1567
1481 1482 1483 1484 1486 1489 1492 1495 1499 1502 1506 1509 1512 1516 1520 1523 1526 1528 1530 1532 1534 1537 1540 1541 1542 1544 1546 1548 1549 1551 1553 1554 1555 1557 1559 1561 1563 1565 1566 1567 1569 1570 1571 1573 1574 1575 1575 1576 1577 1578 1579 1580 1580 1580 1581 1582 1582 1583 1583 1584 1584 1584 1583 1583 1583 1582 1582 1581 1580 1579 1578 1577 1577 1577 1577 1576 1575 1574 1573 1571 1569 1567 1565 1563 1562
1477 1479 1480 1481 1484 1487 1489 1492 1495 1498 1502 1505 1508 1512 1516 1519 1522 1525 1527 1529 1531 1534 1536 1539 1540 1541 1543 1544 1546 1548 1549 1551 1552 1554 1556 1558 1561 1563 1564 1565 1566 1567 1569 1570 1571 1572 1573 1574 1574 1576 1577 1578 1578 1578 1579 1579 1580 1580 1581 1581 1582 1582 1581 1581 1580 1580 1580 1579 1578 1577 1576 1575 1575 1575 1575 1574 1573 1572 1571 1569 1567 1566 1564 1561 1558
1474 1476 1478 1480 1482 1484 1486 1489 1492 1495 1498 1501 1504 1508 1512 1516 1518 1521 1524 1526 1528 1530 1533 1535 1537 1538 1540 1541 1543 1544 1546 1547 1549 1551 1553 1555 1558 1560 1562 1563 1564 1565 1566 1567 1568 1569 1570 1571 1572 1573 1574 1575 1575 1576 1576 1577 1577 1578 1578 1579 1579 1579 1579 1579 1578 1578 1577 1576 1575 1575 1574 1573 1573 1572 1572 1571 1570 1569 1568 1567 1566 1564 1563 1561 1558
1472 1474 1476 1478 1480 1481 1484 1486 1488 1491 1494 1497 1500 1504 1508 1512 1514 1517 1520 1523 1525 1527 1529 1532 1534 1536 1537 1538 1540 1541 1543 1544 1546 1548 1550 1552 1555 1557 1559 1560 1561 1562 1563 1564 1565 1566 1567 1568 1569 1570 1571 1572 1573 1573 1573 1574 1574 1575 1575 1576 1576 1577 1577 1576 1576 1575 1575 1574 1572 1572 1572 1571 1570 1570 1570 1569 1567 1566 1565 1564 1564 1563 1561 1560 1557
1470 1471 1473 1475 1477 1479 1481 1483 1485 1487 1490 1494 1497 1500 1504 1507 1510 1514 1517 1520 1522 1523 1526 1528 1531 1533 1535 1536 1537 1539 1540 1542 1543 1545 1547 1549 1551 1554 1556 1557 1558 1559 1560 1561 1562 1563 1564 1565 1566 1567 1568 1569 1570 1571 1571 1571 1571 1572 1572 1572 1573 1573 1573 1573 1573 1573 1572 1571 1569 1569 1570 1569 1568 1567 1567 1567 1565 1564 1563 1562 1561 1560 1559 1558 1556
1467 1468 1471 1472 1474 1476 1478 1480 1483 1485 1488 1491 1494 1496 1499 1503 1506 1510 1513 1516 1519 1520 1523 1525 1527 1529 1532 1534 1535 1536 1538 1539 1541 1543 1544 1546 1548 1550 1552 1554 1555 1556 1557 1558 1559 1560 1561 1562 1562 1563 1564 1565 1567 1568 1569 1569 1569 1569 1569 1569 1569 1570 1569 1569 1570 1569 1569 1568 1567 1566 1567 1567 1566 1565 1565 1565 1564 1563 1561 1560 1559 1558 1557 1556 1555
1464 1465 1468 1470 1471 1473 1475 1478 1480 1482 1485 1488 1490 1493 1496 1499 1502 1506 1509 1513 1516 1518 1520 1522 1524 1526 1528 1531 1533 1534 1535 1537 1538 1540 1542 1543 1545 1547 1549 1551 1552 1553 1554 1555 1556 1557 1558 1559 1559 1560 1561 1562 1563 1564 1565 1566 1566 1566 1566 1566 1566 1566 1566 1566 1566 1565 1565 1565 1564 1564 1564 1564 1564 1563 1563 1563 1562 1561 1560 1559 1558 1557 1555 1554 1552
1461 1462 1464 1466 1468 1470 1472 1475 1477 1479 1482 1484 1486 1489 1492 1495 1499 1502 1506 1509 1512 1514 1517 1519 1521 1523 1525 1527 1529 1531 1533 1534 1535 1537 1539 1540 1542 1544 1545 1547 1548 1549 1550 1551 1552 1554 1555 1555 1556 1557 1558 1559 1559 1561 1562 1563 1563 1564 1564 1564 1564 1563 1563 1564 1564 1563 1562 1562 1562 1562 1562 1561 1561 1561 1561 1560 1560 1559 1558 1556 1556 1555 1554 1552 1550
1457 1457 1459 1462 1464 1466 1469 1471 1474 1476 1478 1480 1482 1485 1489 1492 1495 1499 1502 1505 1508 1511 1513 1515 1518 1520 1522 1523 1525 1527 1529 1530 1532 1534 1536 1537 1539 1540 1542 1543 1544 1545 1546 1547 1549 1550 1551 1552 1553 1554 1555 1555 1556 1557 1558 1559 1560 1560 1560 1561 1561 1560 1561 1562 1562 1562 1561 1560 1560 1560 1559 1559 1559 1559 1559 1559 1558 1557 1556 1555 1554 1554 1552 1550 1549
1451 1452 1454 1457 1460 1463 1465 1468 1471 1473 1475 1477 1480 1483 1486 1489 1493 1496 1499 1502 1505 1508 1509 1512 1514 1516 1518 1520 1521 1523 1525 1527 1528 1530 1532 1534 1535 1537 1538 1539 1540 1541 1542 1543 1544 1546 1547 1548 1549 1550 1551 1552 1553 1554 1555 1556 1556 1556 1557 1557 1557 1557 1558 1559 1559 1559 1559 1558 1558 1557 1557 1557 1556 1556 1557 1557 1557 1556 1555 1554 1553 1552 1550 1549 1548
1446 1448 1451 1454 1457 1459 1462 1465 1467 1469 1472 1474 1478 1481 1484 1487 1490 1493 1496 1499 1502 1505 1507 1509 1511 1513 1515 1517 1518 1519 1521 1523 1525 1526 1528 1530 1532 1533 1534 1535 1536 1538 1539 1540 1541 1542 1543 1544 1545 1546 1547 1549 1550 1551 1551 1552 1552 1553 1554 1553 1553 1554 1555 1556 1556 1556 1555 1555 1555 1555 1555 1555 1554 1555 1555 1555 1554 1554 1553 1552 1552 1551 1549 1548 1547
1444 1447 1449 1452 1454 1456 1458 1461 1464 1467 1470 1473 1476 1478 1481 1484 1487 1490 1493 1495 1499 1502 1504 1506 1508 1510 1512 1514 1515 1516 1517 1519 1521 1523 1525 1526 1528 1530 1530 1531 1532 1534 1535 1536 1537 1538 1539 1540 1540 1542 1544 1545 1546 1547 1548 1549 1549 1550 1550 1550 1551 1551 1551 1552 1552 1552 1552 1552 1552 1553 1553 1553 1553 1553 1553 1553 1553 1552 1551 1550 1549 1549 1547 1546 1545
1443 1445 1446 1449 1451 1453 1455 1458 1461 1465 1468 1470 1473 1475 1478 1481 1484 1486 1489 1492 1494 1498 1501 1503 1505 1507 1509 1510 1512 1513 1514 1515 1516 1519 1521 1522 1524 1526 1526 1527 1529 1531 1532 1533 1533 1534 1535 1536 1537 1538 1539 1541 1542 1543 1544 1545 1546 1546 1546 1547 1547 1548 1548 1548 1549 1549 1549 1549 1549 1550 1550 1550 1550 1550 1551 1551 1550 1550 1549 1548 1547 1547 1546 1545 1544
1440 1442 1443 1446 1449 1451 1453 1455 1458 1462 1464 1466 1469 1472 1474 1477 1480 1482 1485 1488 1491 1494 1497 1499 1502 1503 1505 1507 1508 1510 1511 1512 1513 1514 1517 1519 1520 1522 1523 1524 1525 1527 1528 1529 1530 1531 1532 1533 1534 1535 1536 1537 1538 1539 1540 1541 1541 1542 1543 1544 1544 1544 1544 1544 1545 1545 1545 1546 1546 1546 1547 1547 1548 1547 1548 1547 1547 1547 1547 1547 1546 1546 1545 1544 1542
1436 1438 1440 1443 1446 1448 1450 1453 1455 1458 1461 1463 1466 1468 1471 1473 1476 1478 1481 1484 1487 1490 1492 1495 1498 1500 1502 1504 1505 1507 1508 1509 1510 1511 1513 1515 1517 1518 1519 1520 1522 1523 1524 1526 1527 1528 1529 1530 1531 1532 1533 1534 1535 1535 1536 1537 1537 1538 1539 1539 1539 1540 1540 1540 1541 1541 1542 1542 1543 1543 1543 1544 1545 1544 1544 1544 1543 1544 1544 1544 1544 1543 1542 1541 1539
1431 1433 1436 1439 1442 1445 1447 1450 1452 1454 1457 1459 1461 1464 1466 1469 1472 1475 1477 1481 1484 1486 1488 1491 1493 1495 1498 1500 1502 1503 1505 1506 1507 1508 1510 1511 1513 1514 1516 1517 1518 1520 1521 1523 1524 1525 1526 1527 1528 1529 1530 1531 1532 1532 1532 1533 1534 1534 1535 1535 1536 1536 1536 1537 1538 1538 1539 1539 1540 1540 1541 1542 1541 1541 1541 1541 1541 1541 1541 1541 1541 1540 1539 1538 1536
1426 1429 1431 1435 1438 1441 1444 1446 1448 1450 1453 1456 1458 1460 1462 1465 1468 1470 1473 1477 1480 1482 1484 1486 1489 1491 1494 1496 1498 1500 1501 1502 1503 1504 1506 1508 1508 1510 1512 1514 1515 1517 1518 1520 1521 1521 1523 1524 1525 1526 1527 1528 1528 1529 1529 1530 1531 1531 1532 1532 1533 1533 1534 1534 1535 1535 1536 1537 1537 1538 1539 1539 1539 1538 1539 1539 1539 1539 1539 1539 1538 1537 1536 1535 1534
1422 1424 1427 1431 1435 1437 1439 1442 1444 1447 1449 1452 1454 1457 1459 1461 1464 1466 1469 1472 1475 1478 1480 1482 1484 1486 1489 1491 1494 1496 1497 1499 1499 1500 1502 1503 1504 1506 1508 1510 1512 1514 1515 1516 1517 1518 1520 1521 1522 1523 1524 1525 1525 1526 1527 1527 1528 1528 1529 1530 1530 1530 1531 1531 1532 1533 1534 1534 1536 1536 1537 1537 1536 1536 1537 1537 1537 1537 1536 1536 1535 1534 1534 1533 1532
1418 1420 1423 1426 1430 1433 1435 1437 1440 1442 1444 1447 1450 1453 1455 1457 1459 1461 1463 1466 1469 1472 1475 1477 1479 1481 1483 1486 1489 1491 1493 1494 1495 1495 1496 1498 1500 1502 1504 1506 1508 1509 1510 1511 1513 1515 1517 1517 1518 1519 1520 1521 1522 1522 1523 1524 1524 1525 1526 1526 1527 1528 1528 1529 1530 1530 1531 1532 1533 1534 1534 1535 1535 1535 1535 1535 1534 1534 1534 1534 1533 1532 1532 1531 1530
1414 1416 1419 1422 1426 1429 1431 1433 1435 1438 1440 1443 1446 1448 1450 1452 1455 1457 1460 1462 1465 1468 1470 1473 1475 1477 1480 1482 1484 1486 1488 1489 1491 1492 1493 1495 1497 1499 1501 1503 1505 1506 1507 1509 1511 1512 1513 1513 1514 1515 1516 1517 1518 1519 1520 1520 1521 1522 1522 1523 1525 1525 1526 1526 1527 1528 1529 1530 1531 1531 1532 1532 1533 1533 1533 1533 1532 1532 1532 1532 1532 1531 1530 1530 1529
1412 1414 1416 1419 1422 1424 1426 1428 1431 1433 1436 1438 1440 1442 1445 1448 1451 1454 1457 1459 1462 1465 1467 1470 1472 1475 1478 1480 1481 1482 1484 1486 1488 1490 1491 1492 1495 1497 1499 1501 1502 1503 1505 1507 1508 1508 1509 1509 1510 1512 1513 1514 1515 1516 1517 1517 1518 1518 1519 1521 1522 1522 1523 1524 1525 1526 1527 1528 1528 1529 1529 1530 1530 1530 1530 1531 1531 1531 1531 1530 1530 1530 1529 1528 1527
1412 1412 1414 1417 1419 1420 1422 1424 1426 1429 1431 1432 1434 1437 1440 1444 1447 1450 1453 1456 1459 1462 1465 1467 1470 1473 1475 1476 1478 1480 1482 1484 1486 1488 1489 1490 1493 1495 1497 1498 1500 1501 1503 1504 1504 1505 1505 1506 1507 1509 1510 1511 1512 1513 1514 1515 1515 1516 1516 1518 1519 1520 1521 1522 1523 1524 1524 1525 1526 1527 1527 1527 1528 1528 1529 1529 1530 1530 1529 1529 1529 1528 1528 1527 1527
1412 1413 1414 1416 1417 1418 1420 1421 1423 1425 1427 1427 1429 1433 1436 1439 1443 1447 1450 1453 1456 1459 1462 1465 1467 1470 1472 1474 1475 1477 1479 1481 1484 1485 1487 1488 1490 1492 1494 1496 1497 1499 1500 1501 1501 1501 1503 1504 1505 1506 1508 1508 1509 1510 1511 1512 1513 1514 1514 1515 1516 1517 1517 1518 1519 1520 1521 1522 1523 1524 1525 1525 1526 1526 1527 1528 1528 1528 1528 1528 1528 1527 1527 1527 1526
1413 1414 1415 1415 1415 1416 1418 1419 1420 1422 1422 1423 1426 1429 1432 1435 1438 1442 1445 1449 1453 1456 1459 1462 1464 1467 1469 1471 1473 1475 1477 1479 1481 1483 1485 1486 1488 1490 1492 1494 1495 1496 1497 1497 1498 1499 1500 1501 1502 1504 1505 1507 1507 1508 1509 1510 1511 1511 1511 1512 1513 1514 1514 1515 1518 1519 1519 1520 1521 1523 1523 1524 1524 1524 1525 1526 1527 1527 1527 1527 1527 1527 1526 1526 1525
1411 1414 1414 1414 1413 1413 1413 1414 1416 1418 1419 1420 1422 1426 1428 1431 1434 1438 1441 1445 1449 1452 1456 1458 1461 1464 1466 1468 1470 1473 1475 1477 1479 1481 1483 1484 1486 1488 1490 1491 1492 1493 1493 1495 1495 1496 1497 1499 1500 1502 1503 1504 1505 1506 1507 1507 1508 1508 1508 1509 1510 1510 1511 1514 1519 1520 1519 1519 1520 1521 1522 1522 1522 1522 1523 1525 1526 1526 1527 1526 1526 1526 1525 1524 1524
1407 1410 1412 1412 1411 1409 1409 1410 1412 1414 1415 1417 1420 1423 1426 1429 1432 1435 1439 1442 1445 1449 1452 1455 1458 1461 1463 1466 1468 1470 1472 1474 1476 1478 1480 1482 1484 1485 1486 1487 1488 1489 1490 1492 1493 1494 1495 1496 1498 1499 1500 1501 1502 1502 1503 1503 1503 1503 1504 1504 1504 1505 1507 1512 1516 1519 1520 1520 1520 1520 1521 1521 1521 1520 1521 1524 1525 1525 1525 1525 1525 1525 1524 1523 1523
1404 1407 1410 1410 1408 1406 1404 1404 1407 1411 1412 1414 1417 1420 1423 1427 1430 1433 1437 1441 1444 1447 1449 1452 1455 1458 1461 1463 1466 1468 1470 1472 1474 1476 1478 1479 1481 1482 1483 1484 1485 1486 1488 1489 1490 1491 1492 1493 1494 1496 1496 1497 1498 1499 1500 1500 1499 1499 1501 1501 1501 1503 1505 1508 1510 1514 1517 1519 1518 1518 1519 1520 1519 1519 1520 1522 1524 1524 1524 1524 1524 1523 1522 1522 1522
1402 1405 1406 1407 1406 1403 1400 1399 1402 1406 1409 1411 1415 1418 1421 1425 1428 1431 1435 1439 1442 1443 1446 1450 1453 1456 1458 1461 1463 1465 1467 1469 1471 1473 1475 1477 1478 1479 1480 1481 1482 1483 1485 1486 1487 1487 1489 1490 1492 1493 1494 1495 1495 1496 1497 1497 1497 1497 1499 1501 1503 1505 1506 1507 1508 1510 1513 1515 1516 1517 1519 1519 1518 1518 1519 1521 1522 1523 1523 1522 1522 1522 1521 1520 1520
1403 1403 1402 1402 1403 1400 1395 1394 1397 1401 1405 1408 1411 1414 1418 1422 1425 1428 1432 1435 1438 1440 1444 1448 1451 1453 1455 1458 1460 1462 1465 1467 1468 1470 1472 1474 1475 1476 1477 1478 1479 1479 1481 1483 1484 1485 1487 1488 1490 1491 1492 1492 1493 1493 1494 1494 1495 1496 1498 1501 1504 1505 1506 1507 1508 1511 1512 1513 1514 1516 1517 1518 1517 1518 1519 1520 1521 1521 1521 1521 1520 1520 1519 1519 1519
1402 1402 1399 1399 1399 1395 1389 1388 1392 1396 1399 1403 1407 1411 1415 1419 1422 1425 1429 1432 1436 1439 1442 1445 1448 1450 1452 1455 1457 1459 1461 1463 1465 1467 1469 1470 1472 1473 1473 1474 1475 1476 1478 1480 1482 1483 1484 1486 1487 1488 1488 1489 1489 1490 1491 1492 1494 1496 1497 1500 1503 1506 1506 1508 1509 1511 1512 1512 1513 1515 1516 1516 1516 1517 1518 1519 1519 1519 1519 1518 1518 1517 1517 1518 1518
1401 1400 1398 1397 1397 1393 1388 1386 1389 1393 1395 1399 1404 1408 1412 1416 1419 1423 1426 1430 1434 1437 1439 1442 1444 1447 1449 1452 1454 1456 1458 1460 1462 1464 1465 1466 1467 1468 1469 1470 1471 1473 1475 1477 1478 1479 1481 1482 1483 1484 1485 1486 1487 1488 1489 1491 1493 1495 1497 1500 1503 1505 1507 1508 1508 1508 1509 1510 1512 1514 1513 1513 1514 1515 1516 1516 1516 1516 1516 1516 1516 1516 1516 1516 1516
1399 1398 1397 1397 1397 1397 1393 1388 1388 1391 1395 1398 1402 1406 1410 1415 1419 1422 1425 1428 1431 1434 1436 1439 1442 1445 1448 1450 1452 1453 1455 1456 1458 1460 1461 1462 1463 1464 1466 1467 1468 1469 1471 1472 1474 1476 1479 1480 1482 1482 1483 1484 1486 1487 1489 1491 1493 1495 1497 1499 1500 1502 1504 1505 1505 1504 1505 1507 1509 1509 1510 1510 1511 1513 1513 1514 1514 1514 1514 1514 1514 1514 1515 1515 1515
1399 1398 1397 1397 1398 1398 1394 1389 1388 1392 1395 1398 1402 1406 1410 1414 1419 1422 1424 1427 1430 1432 1435 1438 1440 1443 1446 1448 1449 1450 1451 1453 1454 1455 1457 1458 1459 1461 1463 1464 1466 1467 1469 1470 1472 1475 1477 1479 1480 1482 1483 1484 1486 1487 1489 1491 1493 1495 1497 1497 1498 1498 1500 1501 1502 1502 1503 1504 1506 1507 1508 1509 1510 1510 1511 1511 1512 1512 1512 1512 1512 1512 1512 1512 1512
1400 1398 1397 1398 1398 1398 1395 1391 1390 1394 1397 1400 1403 1407 1410 1413 1417 1421 1424 1427 1429 1431 1434 1437 1439 1441 1443 1445 1447 1448 1450 1451 1453 1454 1456 1457 1458 1460 1461 1462 1465 1468 1470 1471 1473 1475 1477 1478 1480 1482 1483 1484 1486 1488 1489 1491 1492 1494 1495 1496 1497 1497 1498 1500 1501 1501 1502 1503 1505 1506 1507 1507 1508 1508 1509 1509 1509 1510 1510 1510 1510 1510 1510 1509 1509
1401 1399 1397 1397 1399 1401 1399 1396 1395 1398 1401 1404 1407 1409 1411 1414 1417 1420 1423 1427 1429 1432 1434 1435 1437 1439 1442 1444 1446 1448 1450 1452 1453 1454 1456 1457 1458 1459 1461 1463 1465 1468 1471 1473 1474 1476 1477 1478 1480 1482 1483 1485 1487 1490 1491 1492 1493 1494 1494 1495 1495 1496 1497 1498 1498 1499 1500 1502 1503 1504 1504 1505 1505 1506 1506 1507 1507 1507 1507 1508 1508 1507 1507 1507 1507
1403 1402 1400 1398 1399 1402 1403 1402 1402 1404 1406 1409 1411 1413 1415 1417 1420 1422 1425 1427 1430 1433 1434 1435 1436 1438 1440 1443 1446 1449 1451 1452 1453 1454 1455 1457 1458 1460 1462 1464 1466 1468 1470 1472 1474 1476 1477 1479 1481 1482 1484 1486 1488 1490 1491 1492 1492 1493 1493 1494 1494 1495 1495 1495 1496 1497 1498 1499 1500 1501 1502 1502 1502 1503 1504 1504 1504 1504 1504 1505 1505 1504 1505 1505 1505
1406 1404 1403 1403 1403 1404 1406 1408 1409 1411 1413 1415 1417 1417 1419 1420 1422 1425 1427 1430 1432 1434 1435 1434 1435 1437 1439 1443 1447 1450 1452 1453 1454 1455 1457 1459 1461 1463 1464 1465 1467 1469 1471 1473 1475 1476 1478 1479 1481 1482 1483 1485 1487 1490 1492 1492 1492 1492 1492 1493 1493 1493 1494 1494 1495 1496 1497 1498 1499 1500 1500 1500 1501 1501 1501 1501 1501 1501 1501 1502 1502 1502 1502 1502 1502
1410 1409 1408 1408 1409 1411 1412 1413 1414 1416 1419 1421 1422 1423 1423 1424 1426 1429 1431 1432 1434 1435 1436 1436 1436 1438 1441 1445 1449 1452 1454 1455 1456 1457 1458 1460 1462 1464 1465 1465 1467 1469 1471 1473 1474 1475 1477 1479 1480 1481 1483 1485 1487 1490 1491 1491 1491 1491 1492 1492 1492 1492 1493 1493 1494 1495 1496 1497 1497 1498 1498 1498 1499 1499 1499 1499 1499 1499 1499 1499 1499 1500 1500 1500 1500
1415 1415 1415 1415 1415 1417 1419 1420 1420 1420 1422 1425 1427 1428 1429 1430 1431 1433 1434 1435 1436 1437 1439 1440 1439 1439 1443 1446 1449 1452 1456 1458 1459 1460 1461 1462 1463 1465 1466 1466 1467 1470 1471 1472 1473 1475 1477 1479 1480 1482 1484 1486 1488 1489 1490 1490 1490 1491 1491 1491 1491 1492 1492 1493 1494 1494 1495 1496 1496 1497 1497 1497 1497 1497 1497 1497 1497 1497 1497 1497 1497 1497 1498 1497 1497
1419 1420 1420 1420 1421 1422 1423 1424 1424 1425 1426 1428 1430 1432 1433 1434 1435 1436 1437 1438 1438 1439 1441 1443 1441 1440 1442 1447 1451 1454 1457 1460 1462 1462 1463 1464 1465 1466 1467 1467 1469 1471 1472 1473 1473 1475 1477 1479 1481 1483 1485 1486 1488 1488 1489 1489 1490 1490 1490 1491 1491 1492 1492 1493 1493 1494 1494 1495 1495 1495 1495 1495 1495 1495 1495 1495 1495 1495 1495 1495 1495 1495 1495 1495 1495
1423 1424 1425 1425 1426 1427 1427 1427 1428 1429 1430 1432 1434 1435 1436 1437 1438 1438 1439 1440 1441 1441 1442 1443 1442 1441 1443 1448 1453 1457 1460 1462 1464 1464 1465 1466 1467 1467 1468 1469 1470 1471 1473 1474 1475 1476 1478 1480 1482 1484 1486 1486 1487 1488 1488 1488 1489 1489 1489 1490 1490 1491 1492 1492 1492 1493 1493 1493 1494 1494 1493 1493 1493 1493 1493 1493 1493 1493 1493 1493 1493 1493 1493 1493 1493
1426 1427 1428 1429 1430 1430 1431 1431 1431 1432 1434 1435 1436 1437 1438 1439 1440 1441 1441 1441 1442 1442 1442 1442 1442 1443 1446 1451 1456 1459 1462 1463 1464 1466 1466 1467 1468 1469 1470 1470 1471 1472 1473 1475 1476 1478 1480 1482 1484 1485 1485 1486 1486 1487 1487 1487 1488 1488 1489 1489 1490 1490 1491 1491 1491 1492 1492 1492 1492 1492 1492 1491 1491 1491 1491 1490 1491 1491 1491 1491 1490 1490 1490 1491 1491